CAPE
0 0 0 0 0 0 0 0 0 0 0 0 0 0 0 0 0 0 0 0 0 0 0 2 30 42 62 91 100 2 0 0 0 0 6 234 350 493 620 434 545 590 636 718 818
0 0 0 0 0 0 0 0 0 0 0 0 0 0 0 0 0 0 0 0 0 0 0 0 0 6 0 0 21 28 0 0 0 0 59 169 284 542 580 361 637 701 783 906 996
0 0 0 0 0 0 0 0 0 0 0 0 0 0 0 0 0 0 0 0 0 0 0 0 0 0 0 0 0 13 0 0 4 0 24 138 152 374 411 153 522 313 653 1001 1014
0 0 0 0 0 0 0 0 0 0 0 0 0 0 0 0 0 0 0 0 0 0 0 0 0 0 0 0 0 0 0 0 0 3 0 2 25 206 366 279 500 526 747 1055 1037
0 0 0 0 0 0 0 0 0 0 0 0 0 0 0 0 0 0 0 0 0 0 0 0 0 0 0 0 0 0 0 0 0 0 8 0 17 32 243 433 599 803 1010 1038 1072
0 0 0 0 0 0 0 0 0 0 0 0 0 0 0 0 0 0 0 0 0 0 0 0 0 0 0 0 0 0 0 0 0 0 9 36 45 64 114 514 549 736 823 999 1066
0 0 0 0 0 0 0 0 0 0 0 0 0 0 0 0 0 0 0 0 0 0 0 0 0 0 0 0 0 0 0 1 2 0 2 40 55 72 254 558 599 653 713 866 1043
0 0 0 0 0 0 0 0 0 0 0 0 0 0 0 0 0 0 0 0 0 0 0 0 0 0 0 0 0 0 0 0 29 0 2 47 31 46 353 548 653 684 624 694 923
0 0 0 0 0 0 0 0 0 0 0 0 0 0 0 0 0 0 0 0 0 0 0 0 0 0 0 0 0 0 0 0 1 41 16 7 33 14 380 490 586 705 639 764 835
0 0 0 0 0 0 0 0 0 0 0 0 0 0 0 0 0 0 0 0 0 0 0 0 0 0 0 0 0 0 0 0 0 9 15 16 0 8 292 526 514 709 682 847 941
0 0 0 0 0 0 0 0 0 0 0 0 0 0 0 0 0 0 0 0 0 0 0 0 0 0 0 0 0 0 0 0 0 0 1 0 0 13 71 508 647 734 770 873 980
0 0 0 0 0 0 0 0 0 0 0 0 0 0 0 0 0 0 0 0 0 0 0 0 0 0 0 0 0 0 0 0 0 0 0 0 0 0 10 121 508 688 748 829 916
0 0 0 0 0 0 0 0 0 0 0 0 0 0 0 0 0 0 0 0 0 0 0 0 0 0 0 0 0 0 0 0 0 0 0 0 0 0 0 6 240 528 631 731 832
0 0 0 0 0 0 0 0 0 0 0 0 0 0 0 0 0 0 0 0 0 0 0 0 0 0 0 0 0 0 0 0 0 0 0 0 0 0 0 0 1 7 50 307 670
0 0 0 0 0 0 0 0 0 0 0 0 0 0 0 0 0 0 0 0 0 0 0 0 0 0 0 0 0 0 0 0 0 0 0 0 0 0 0 0 0 0 25 125 324
0 0 0 0 0 0 0 0 0 0 0 0 0 0 0 0 0 0 0 0 0 0 0 0 0 0 0 0 0 0 0 0 0 0 0 0 0 0 0 0 0 0 10 86 398
0 0 0 0 0 0 0 0 0 0 0 0 0 0 0 0 0 0 0 0 0 0 0 0 0 0 0 0 0 0 0 0 0 0 0 0 0 0 0 0 10 25 0 49 233
0 0 0 0 0 0 0 0 0 0 0 0 0 0 0 0 0 0 0 0 0 0 0 0 0 0 0 0 0 0 0 0 0 0 0 0 0 0 0 329 356 62 11 94 253
0 0 0 0 0 0 0 0 0 0 0 0 0 0 0 0 0 0 0 0 0 0 0 0 0 0 0 0 0 0 0 0 0 0 0 0 0 0 20 269 530 267 263 344 419
0 0 0 0 0 0 0 0 0 0 0 0 0 0 0 0 0 0 0 0 0 0 0 0 0 0 0 0 0 0 0 0 0 0 0 0 0 0 0 108 794 501 555 808 834
0 0 0 0 0 0 0 0 0 0 0 0 0 0 0 0 0 0 0 0 0 0 0 0 0 0 0 0 0 0 0 0 0 0 0 0 0 0 0 256 907 750 766 555 116
0 0 0 0 0 0 0 0 0 0 0 0 0 0 0 0 0 0 0 0 0 0 0 0 0 0 0 0 0 0 0 0 0 0 0 0 0 0 10 203 615 882 679 555 289
0 0 0 0 0 0 0 0 0 0 0 0 0 0 0 0 0 0 0 0 0 0 0 0 0 0 0 0 0 0 0 0 0 0 0 0 0 0 32 270 238 1202 674 252 228
0 0 0 0 0 0 0 0 0 0 0 0 0 0 0 0 0 0 0 0 0 0 0 0 0 0 0 0 0 0 0 0 0 0 0 0 0 0 3 90 172 980 913 561 111
0 0 0 0 0 0 0 0 0 0 0 0 0 0 0 0 0 0 0 0 0 0 0 0 0 0 0 0 0 0 0 0 0 0 0 0 0 14 0 10 90 294 499 857 292
0 0 0 0 0 0 0 0 0 0 0 0 0 0 0 0 0 0 0 0 0 0 0 0 0 0 0 0 0 0 0 0 0 0 11 16 63 91 204 118 59 127 269 278 158
0 0 0 0 0 0 0 0 0 0 0 0 0 0 0 0 0 0 0 0 0 0 0 0 7 0 0 0 0 0 106 45 236 331 172 143 306 344 152 78 81 75 80 121 164
CIN
0 0 0 0 0 0 0 0 0 0 0 0 0 0 0 0 0 0 0 0 0 0 0 -136 -608 -532 -553 -386 -366 -46 0 0 0 0 -61 -179 -129 -194 -196 -196 -194 -188 -200 -205 -214
0 0 0 0 0 0 0 0 0 0 0 0 0 0 0 0 0 0 0 0 0 0 0 0 0 -180 0 0 -263 -175 0 0 0 0 -123 -152 -126 -157 -166 -195 -177 -206 -252 -254 -236
0 0 0 0 0 0 0 0 0 0 0 0 0 0 0 0 0 0 0 0 0 0 0 0 0 0 0 0 0 -154 0 0 -110 0 -136 -141 -164 -153 -145 -154 -174 -193 -279 -266 -238
0 0 0 0 0 0 0 0 0 0 0 0 0 0 0 0 0 0 0 0 0 0 0 0 0 0 0 0 0 0 0 0 0 -180 0 -53 -190 -124 -126 -124 -170 -262 -263 -279 -243
0 0 0 0 0 0 0 0 0 0 0 0 0 0 0 0 0 0 0 0 0 0 0 0 0 0 0 0 0 0 0 0 0 0 -171 0 -167 -153 -126 -169 -215 -289 -289 -279 -251
0 0 0 0 0 0 0 0 0 0 0 0 0 0 0 0 0 0 0 0 0 0 0 0 0 0 0 0 0 0 0 0 0 0 -202 -153 -196 -189 -185 -203 -248 -283 -292 -289 -269
0 0 0 0 0 0 0 0 0 0 0 0 0 0 0 0 0 0 0 0 0 0 0 0 0 0 0 0 0 0 0 -61 -168 0 -49 -214 -152 -183 -226 -229 -223 -274 -302 -279 -287
0 0 0 0 0 0 0 0 0 0 0 0 0 0 0 0 0 0 0 0 0 0 0 0 0 0 0 0 0 0 0 -15 -134 -2 -57 -212 -68 -224 -258 -206 -224 -240 -283 -289 -296
0 0 0 0 0 0 0 0 0 0 0 0 0 0 0 0 0 0 0 0 0 0 0 0 0 0 0 0 0 0 0 0 -20 -171 -150 -117 -88 -209 -281 -238 -233 -265 -281 -293 -266
0 0 0 0 0 0 0 0 0 0 0 0 0 0 0 0 0 0 0 0 0 0 0 0 0 0 0 0 0 0 0 0 0 -86 -138 -110 0 -205 -250 -232 -200 -279 -318 -305 -235
0 0 0 0 0 0 0 0 0 0 0 0 0 0 0 0 0 0 0 0 0 0 0 0 0 0 0 0 0 0 0 0 0 0 -19 0 0 -173 -235 -251 -233 -292 -304 -320 -233
0 0 0 0 0 0 0 0 0 0 0 0 0 0 0 0 0 0 0 0 0 0 0 0 0 0 0 0 0 0 0 0 0 0 0 0 0 0 -179 -218 -208 -280 -329 -288 -276
0 0 0 0 0 0 0 0 0 0 0 0 0 0 0 0 0 0 0 0 0 0 0 0 0 0 0 0 0 0 0 0 0 0 0 0 0 0 0 -254 -331 -370 -443 -374 -292
0 0 0 0 0 0 0 0 0 0 0 0 0 0 0 0 0 0 0 0 0 0 0 0 0 0 0 0 0 0 0 0 0 0 0 0 0 0 0 0 -129 -399 -416 -407 -354
0 0 0 0 0 0 0 0 0 0 0 0 0 0 0 0 0 0 0 0 0 0 0 0 0 0 0 0 0 0 0 0 0 0 0 0 0 0 0 0 0 -20 -387 -471 -413
0 0 0 0 0 0 0 0 0 0 0 0 0 0 0 0 0 0 0 0 0 0 0 0 0 0 0 0 0 0 0 0 0 0 0 0 0 0 0 0 0 0 -419 -446 -419
0 0 0 0 0 0 0 0 0 0 0 0 0 0 0 0 0 0 0 0 0 0 0 0 0 0 0 0 0 0 0 0 0 0 0 0 0 0 0 0 -176 -251 0 -457 -429
0 0 0 0 0 0 0 0 0 0 0 0 0 0 0 0 0 0 0 0 0 0 0 0 0 0 0 0 0 0 0 0 0 0 0 0 0 0 0 -233 -346 -359 -460 -554 -550
0 0 0 0 0 0 0 0 0 0 0 0 0 0 0 0 0 0 0 0 0 0 0 0 0 0 0 0 0 0 0 0 0 0 0 0 0 0 -57 -136 -317 -399 -535 -536 -529
0 0 0 0 0 0 0 0 0 0 0 0 0 0 0 0 0 0 0 0 0 0 0 0 0 0 0 0 0 0 0 0 0 0 0 0 0 0 0 -77 -335 -365 -429 -491 -502
0 0 0 0 0 0 0 0 0 0 0 0 0 0 0 0 0 0 0 0 0 0 0 0 0 0 0 0 0 0 0 0 0 0 0 0 0 0 0 -202 -269 -393 -464 -455 -491
0 0 0 0 0 0 0 0 0 0 0 0 0 0 0 0 0 0 0 0 0 0 0 0 0 0 0 0 0 0 0 0 0 0 0 0 0 0 -272 -362 -466 -410 -433 -473 -492
0 0 0 0 0 0 0 0 0 0 0 0 0 0 0 0 0 0 0 0 0 0 0 0 0 0 0 0 0 0 0 0 0 0 0 0 0 0 -398 -391 -521 -369 -414 -466 -499
0 0 0 0 0 0 0 0 0 0 0 0 0 0 0 0 0 0 0 0 0 0 0 0 0 0 0 0 0 0 0 0 0 0 0 0 0 0 -111 -166 -401 -399 -444 -471 -649
0 0 0 0 0 0 0 0 0 0 0 0 0 0 0 0 0 0 0 0 0 0 0 0 0 0 0 0 0 0 0 0 0 0 0 0 0 -92 0 -203 -317 -463 -515 -488 -546
0 0 0 0 0 0 0 0 0 0 0 0 0 0 0 0 0 0 0 0 0 0 0 0 0 0 0 0 0 0 0 0 0 0 -146 -137 -93 -340 -449 -506 -410 -390 -426 -448 -497
0 0 0 0 0 0 0 0 0 0 0 0 0 0 0 0 0 0 0 0 0 0 0 0 -152 -7 0 0 0 0 -185 -198 -193 -251 -243 -106 -183 -404 -228 -390 -414 -439 -543 -455 -507
Wind_Speed
23 23 23 24 24 25 25 26 25 24 24 24 24 24 25 26 24 11 16 11 10 11 14 16 11 16 17 16 15 17 19 21 19 20 21 21 21 21 16 23 20 19 21 22 25
24 25 25 26 26 27 27 27 27 26 25 25 25 25 24 25 23 17 3 8 8 10 13 13 12 12 13 14 15 16 18 15 15 16 18 18 18 20 19 20 16 20 23 25 24
26 27 27 27 28 28 29 29 29 29 27 27 26 25 25 23 15 10 5 9 11 6 9 10 10 10 11 12 12 14 14 12 12 11 15 15 16 17 17 16 16 20 22 23 22
28 28 29 29 29 30 30 30 31 31 30 28 27 26 25 19 13 13 7 9 10 3 7 9 9 9 10 10 12 13 11 11 10 10 11 11 15 13 15 13 15 19 21 21 20
30 30 31 31 31 32 32 32 32 32 31 29 28 26 21 18 12 14 8 6 5 7 4 5 6 7 9 12 12 10 14 8 13 8 9 9 10 10 12 12 16 18 18 18 17
32 32 32 33 33 33 34 34 34 33 33 31 27 25 21 18 16 10 7 6 8 5 6 4 7 10 11 11 11 12 12 8 9 12 6 8 8 10 11 12 13 15 16 15 16
33 34 34 34 35 35 36 36 36 34 34 29 23 21 21 22 13 12 8 11 10 8 9 9 10 12 15 13 14 15 15 14 20 10 9 7 4 7 10 13 13 15 14 14 14
34 34 35 36 36 37 37 38 37 36 30 23 15 20 22 21 20 20 14 18 13 12 14 16 11 13 11 16 17 16 16 16 18 12 9 8 5 7 9 13 14 14 12 14 15
34 35 36 36 37 38 38 39 37 26 21 14 17 20 23 22 22 19 14 17 12 14 16 14 13 13 16 15 17 17 13 16 17 7 13 6 3 8 9 12 15 16 13 12 14
35 36 36 37 37 38 39 38 26 21 17 17 18 22 22 17 18 20 17 16 20 17 15 12 13 10 13 13 15 13 15 17 14 14 13 9 7 11 8 14 17 15 15 12 12
36 36 37 37 37 37 33 24 25 24 23 22 21 22 23 21 21 17 16 13 14 14 13 16 13 12 14 15 18 18 17 18 18 20 10 3 5 14 15 19 19 18 14 11 16
36 36 37 37 37 34 23 22 19 24 32 29 31 33 28 24 24 21 14 13 10 11 12 15 17 15 15 17 17 15 16 28 31 14 7 14 10 3 25 24 22 19 15 13 13
36 36 36 37 36 22 24 19 22 21 28 32 27 29 27 17 26 24 14 15 13 14 14 17 18 13 13 15 18 17 14 17 20 19 17 22 26 16 18 14 25 25 17 12 10
35 35 35 37 24 25 23 18 27 16 29 31 26 27 19 16 25 19 13 15 16 16 15 19 19 17 15 17 15 18 10 12 21 24 24 18 29 21 12 3 10 17 19 8 12
36 35 33 29 29 24 20 26 22 16 33 22 21 19 17 16 18 19 15 16 17 15 13 15 12 10 15 17 13 17 18 20 23 19 22 19 22 24 23 23 25 6 5 10 11
36 35 33 23 24 26 26 26 14 22 32 22 19 19 18 22 23 16 15 18 20 19 21 23 20 18 19 19 15 19 18 17 18 19 21 20 19 23 21 23 29 29 11 2 3
37 36 32 25 23 20 24 18 22 29 22 22 20 21 21 20 21 19 17 15 17 18 23 22 22 22 20 23 17 16 16 18 20 19 21 20 21 22 24 27 28 32 19 4 2
38 37 27 22 22 20 17 19 30 26 30 23 22 24 20 17 18 18 18 17 19 20 21 23 26 20 17 16 15 17 14 15 21 20 21 21 24 21 22 27 26 22 17 10 7
36 26 25 22 18 17 17 25 28 25 24 28 25 22 19 18 17 16 19 26 25 19 23 20 23 21 19 19 18 16 17 17 17 20 20 22 25 28 22 22 21 18 14 10 8
29 26 23 18 7 12 17 26 27 24 23 23 24 20 21 21 18 18 17 19 25 19 18 21 27 23 21 17 19 21 14 20 20 20 22 22 24 23 19 16 17 15 11 8 7
24 22 20 12 10 14 18 22 29 28 26 24 22 23 22 22 20 19 18 18 19 21 17 18 20 22 17 15 15 16 19 19 19 19 17 17 21 17 16 15 11 9 7 6 7
21 20 16 8 14 17 20 23 25 31 26 27 26 26 26 27 23 19 17 17 20 17 16 14 16 21 21 21 21 21 22 18 15 18 18 20 27 20 18 15 11 5 3 3 6
22 17 13 16 15 16 18 21 25 31 33 28 29 27 24 24 23 20 18 17 18 14 15 12 20 25 25 23 19 19 15 15 15 16 17 20 24 18 17 13 11 3 2 2 4
18 18 15 16 18 17 19 26 25 24 29 27 29 26 26 27 22 22 20 17 18 18 17 12 17 18 21 20 14 14 12 13 14 16 15 19 22 23 17 10 10 3 2 2 5
15 18 19 19 24 24 23 26 28 24 21 24 26 30 26 27 25 24 22 22 18 18 16 17 19 18 18 17 15 13 11 11 14 11 16 17 17 23 27 16 7 5 7 5 5
17 18 20 20 21 20 20 21 22 24 22 21 24 23 26 27 25 24 23 22 22 21 18 18 18 17 17 20 17 15 18 17 12 13 16 17 19 23 29 23 13 7 2 5 11
18 16 17 20 19 17 18 19 21 15 17 18 18 15 18 21 21 22 23 23 23 22 21 18 18 18 20 20 20 19 21 15 12 16 18 20 23 30 30 29 24 6 3 2 4
Wind_Direction
305 304 305 304 305 306 309 309 307 301 301 299 295 297 295 292 278 336 163 123 81 72 66 85 33 76 104 85 113 93 69 66 77 73 67 104 84 109 121 95 100 107 94 101 109
302 303 303 303 304 305 308 310 308 300 300 300 297 296 295 296 282 187 226 99 84 90 68 84 74 73 67 63 67 60 53 85 90 73 66 97 87 102 99 105 109 100 83 94 107
301 301 300 300 302 303 305 310 308 304 298 300 299 294 295 296 333 2 34 113 116 89 34 45 10 54 63 48 56 48 51 106 87 78 90 90 94 102 97 102 117 104 96 103 109
303 300 299 299 300 301 303 305 305 304 301 297 299 296 297 314 349 324 43 107 118 27 8 8 354 35 53 49 32 29 65 132 95 101 107 93 115 97 109 112 112 116 109 106 113
303 302 300 298 299 299 299 299 302 302 304 298 298 303 312 323 343 321 33 58 70 333 6 46 31 34 18 7 359 19 21 81 185 141 132 88 135 118 137 91 87 108 109 114 120
302 301 301 300 299 297 297 296 297 299 301 305 300 308 310 322 309 351 12 21 332 345 342 360 25 345 345 355 357 357 10 26 185 190 110 127 100 113 126 122 104 118 126 127 130
301 300 299 299 299 298 296 294 293 295 299 307 317 314 316 293 324 322 334 315 325 319 318 326 333 339 319 335 332 337 356 360 347 46 60 47 103 118 119 118 130 138 137 138 143
302 300 299 297 297 297 296 292 291 293 301 315 332 313 309 297 288 289 303 297 301 305 300 303 324 326 329 314 322 334 341 346 345 20 33 72 107 113 102 134 149 146 144 152 151
302 301 300 297 295 294 294 290 291 301 309 326 315 307 304 299 286 291 301 291 307 302 302 309 315 312 308 314 315 327 337 332 343 34 358 30 60 27 130 149 161 166 159 156 164
302 301 300 299 297 295 293 290 297 302 309 309 309 300 296 307 297 291 299 291 283 293 306 318 313 309 310 312 302 321 322 323 330 335 334 345 210 346 145 168 179 174 175 169 167
301 301 300 299 297 298 300 299 290 287 291 285 294 292 296 297 296 292 300 303 292 292 297 304 303 294 297 299 299 307 311 312 313 322 331 263 232 206 190 194 194 193 189 183 182
301 300 300 299 298 297 304 293 300 295 282 284 280 278 285 292 290 284 293 300 296 289 302 301 293 297 298 301 299 301 303 285 282 339 347 337 223 193 217 213 204 200 199 194 189
301 300 300 298 297 302 295 292 306 309 287 283 284 281 281 282 276 276 285 286 288 290 292 289 295 303 297 300 299 297 294 299 307 322 326 321 313 204 207 204 216 213 205 202 207
299 300 301 300 296 297 287 299 302 307 286 281 285 283 283 281 276 275 269 280 289 285 290 292 291 289 291 295 306 297 300 293 300 306 306 327 302 323 353 139 195 209 211 210 201
297 297 299 300 289 286 291 297 301 302 276 293 288 301 286 269 281 272 269 268 273 284 288 290 297 294 294 298 311 304 306 302 296 303 305 313 315 300 318 322 315 222 233 197 192
294 293 296 300 292 284 287 293 295 276 268 288 294 292 284 273 272 275 269 273 275 273 280 279 286 289 289 295 307 305 304 306 307 302 298 303 312 304 318 326 309 314 327 241 333
292 287 287 292 285 293 290 280 267 262 280 281 285 297 287 278 271 265 262 261 259 264 271 281 281 283 286 284 299 305 301 297 297 301 298 305 303 305 309 312 316 293 327 16 38
293 286 291 287 285 287 282 261 260 269 262 281 285 287 287 283 278 261 261 261 263 270 278 276 280 282 282 281 294 300 299 298 295 298 304 304 299 305 311 314 315 326 339 351 1
296 298 291 290 276 276 266 252 260 264 272 268 278 279 279 282 278 276 266 261 264 265 269 280 278 285 282 278 288 293 296 303 309 309 307 306 303 301 311 317 326 331 352 4 16
298 295 289 294 288 265 262 259 262 264 275 276 264 275 270 278 280 279 276 281 268 267 270 276 278 280 289 285 280 284 298 299 301 302 302 304 307 313 320 321 331 334 355 25 45
303 294 296 296 278 267 262 268 265 264 269 268 267 268 271 272 281 282 280 284 290 275 267 274 278 280 288 291 286 287 294 301 302 301 305 307 305 327 333 334 341 350 10 42 35
301 285 296 290 279 275 273 272 273 264 268 268 268 265 267 267 271 279 280 286 299 289 275 277 281 273 276 283 286 290 294 298 299 301 306 307 299 310 316 329 339 356 31 45 39
293 295 286 285 284 283 286 280 274 264 260 261 261 260 267 263 266 272 277 293 308 302 286 285 279 271 275 282 290 295 299 305 304 306 303 307 310 324 322 326 334 5 80 83 48
297 280 281 278 284 287 290 279 275 274 265 262 259 258 259 258 264 269 271 286 300 303 298 289 286 279 273 280 297 297 301 303 308 308 311 310 311 315 329 328 324 310 198 21 34
299 281 272 272 270 276 282 276 266 271 273 265 256 249 254 256 259 263 273 279 291 307 302 293 285 285 287 287 290 295 304 310 311 320 313 319 329 321 315 333 319 326 163 179 167
287 282 278 271 275 282 283 277 270 268 270 269 254 251 251 256 260 262 270 277 280 292 301 300 289 288 287 280 289 290 298 302 318 320 318 321 321 328 315 333 347 318 220 189 189
285 298 299 273 277 284 283 277 268 285 276 270 257 259 258 263 269 272 273 276 282 286 291 295 290 287 284 284 281 283 291 299 315 321 314 311 313 307 306 316 319 336 292 241 210